Weather History for Rexburg, ID

Change the Weather History Date:

Sunday, September 11, 2011

  Actual Average Record
Temperature  
Mean Temperature 64 °F 57 °F  
Max Temperature 82 °F 74 °F 85 °F (2004)
Min Temperature 45 °F 41 °F 35 °F (2007)
Degree Days  
Heating Degree Days 1 8  
Month to date heating degree days 30 66  
Since 1 July heating degree days 52 139  
Cooling Degree Days 0 0  
Month to date cooling degree days 0 5  
Year to date cooling degree days 222 207  
Growing Degree Days 13 (Base 50)    
Moisture  
Dew Point 41 °F    
Average Humidity 49    
Maximum Humidity 76    
Minimum Humidity 21    
Precipitation  
Precipitation 0.00 in 0.03 in 0.63 in (1978)
Month to date precipitation T 0.32  
Year to date precipitation 10.08 9.24  
Sea Level Pressure  
Sea Level Pressure 30.05 in    
Wind  
Wind Speed 5 mph (SW)    
Max Wind Speed 14 mph    
Max Gust Speed 22 mph    
Visibility 10 miles    
Events      
T = Trace of Precipitation, MM = Missing Value Source: NWS Daily Summary

Daily Weather History Graph

Daily Weather History Graph

Search for Another Location

Airport:

Trip Planner

Search our weather history database for the weather conditions in past years. The results will help you decide how hot, cold, wet, or windy it might be!

Date:

Astronomy

Sep. 11, 2011 Rise Set
Actual Time 7:01 AM MDT 7:45 PM MDT
Civil Twilight 6:32 AM MDT 8:14 PM MDT
Nautical Twilight 5:58 AM MDT 8:48 PM MDT
Astronomical Twilight 5:22 AM MDT 9:24 PM MDT
Moon 7:07 PM MDT (9/11) 6:24 AM MDT (9/11)
Length of Visible Light 13h 41m
Length of Day
12h 43m
Full, 100% of the Moon is Illuminated
Sep 11
Full
Sep 12
Full
Sep 20
Last Quarter
Sep 27
New
Oct 3
First Quarter

Hourly Weather History & Observations

Time (MDT) Temp. Windchill Dew Point Humidity Pressure Visibility Wind Dir Wind Speed Gust Speed Precip Events Conditions
12:53 AM 52.0 °F - 39.9 °F 63% 30.03 in 10.0 mi Calm Calm - N/A   Clear
1:53 AM 50.0 °F - 41.0 °F 71% 30.04 in 10.0 mi North 3.5 mph - N/A   Clear
2:53 AM 50.0 °F - 41.0 °F 71% 30.04 in 10.0 mi Calm Calm - N/A   Clear
3:53 AM 48.0 °F - 39.0 °F 71% 30.04 in 10.0 mi NE 4.6 mph - N/A   Clear
4:53 AM 46.9 °F - 37.9 °F 71% 30.06 in 10.0 mi Calm Calm - N/A   Clear
5:53 AM 46.0 °F 44.8 °F 39.0 °F 76% 30.07 in 10.0 mi ENE 3.5 mph - N/A   Clear
6:53 AM 45.0 °F 43.5 °F 37.9 °F 76% 30.09 in 10.0 mi NNE 3.5 mph - N/A   Clear
7:53 AM 46.9 °F - 37.9 °F 71% 30.10 in 10.0 mi Calm Calm - N/A   Clear
8:53 AM 53.1 °F - 39.9 °F 61% 30.12 in 10.0 mi NE 3.5 mph - N/A   Clear
9:53 AM 60.1 °F - 42.1 °F 51% 30.12 in 10.0 mi Calm Calm - N/A   Clear
10:53 AM 69.1 °F - 42.1 °F 38% 30.11 in 10.0 mi WSW 3.5 mph - N/A   Clear
11:53 AM 73.0 °F - 43.0 °F 34% 30.09 in 10.0 mi South 5.8 mph - N/A   Clear
12:53 PM 77.0 °F - 39.9 °F 26% 30.06 in 10.0 mi West 8.1 mph - N/A   Clear
1:53 PM 78.1 °F - 39.0 °F 25% 30.04 in 10.0 mi SSW 9.2 mph - N/A   Clear
2:53 PM 80.1 °F - 37.9 °F 22% 30.01 in 10.0 mi WSW 11.5 mph 20.7 mph N/A   Clear
3:00 PM - - - N/A% - - North - - N/A   Unknown
3:53 PM 81.0 °F - 37.0 °F 21% 29.99 in 10.0 mi WSW 11.5 mph 18.4 mph N/A   Clear
4:53 PM 81.0 °F - 37.0 °F 21% 29.98 in 10.0 mi SW 8.1 mph - N/A   Clear
5:53 PM 80.1 °F - 39.9 °F 24% 29.99 in 10.0 mi SSW 10.4 mph - N/A   Clear
6:53 PM 75.0 °F - 44.1 °F 33% 30.01 in 10.0 mi SW 12.7 mph - N/A   Clear
7:53 PM 69.1 °F - 46.0 °F 44% 30.03 in 10.0 mi South 5.8 mph - N/A   Clear
8:53 PM 68.0 °F - 44.1 °F 42% 30.04 in 10.0 mi South 8.1 mph - N/A   Clear
9:53 PM 66.0 °F - 42.1 °F 42% 30.05 in 10.0 mi South 8.1 mph - N/A   Clear
10:53 PM 60.1 °F - 45.0 °F 57% 30.06 in 10.0 mi Calm Calm - N/A   Clear
11:53 PM 55.9 °F - 46.0 °F 69% 30.08 in 10.0 mi North 3.5 mph - N/A   Clear